SouthEast Lincoln: Weather Underground Data


Davis Vantage Pro Historical Data
 
Daily Summary for April 20, 2018 Units:  English    Metric   Both
« Previous Day
Next Day »
Daily Weekly Monthly Yearly Custom
  Current: High: Low: Average:
Temperature: 60.4 °F TemperatureF °F 37.9 °F 48.6 °F
Dew Point: 28.0 °F DewpointF °F 27.3 °F 30.3 °F
Humidity: 29% Humidity% 28% 51%
Wind Speed: 0.0mph WindSpeedMPHmph 0.0mph 2.1mph
Wind Gust: 0.0mph WindSpeedGustMPHmph - -
Wind:Calm - - SE
Pressure: 30.29 in PressureIn in 30.27 in -
Precipitation: 0.00 in      
Historical Graphs
 
 
Tabular Data for April 20, 2018
Time Temperature Dew Point Pressure Wind Wind Speed Wind Gust Humidity Rainfall Rate (Hourly) solar
TemperatureF °F DewpointF °F PressureIn in Calm     Humidity% HourlyPrecipIn in SolarRadiationWatts/m^2 W/m2
00:03 45.8 °F 29.2 °F 30.43 in Calm     52% 0.00 in 0.00 W/m2
00:08 45.9 °F 29.3 °F 30.42 in Calm     52% 0.00 in 0.00 W/m2
00:13 46.0 °F 29.4 °F 30.42 in Calm     52% 0.00 in 0.00 W/m2
00:18 46.1 °F 29.5 °F 30.43 in Calm     52% 0.00 in 0.00 W/m2
00:23 46.1 °F 29.5 °F 30.43 in Calm     52% 0.00 in 0.00 W/m2
00:28 46.1 °F 29.5 °F 30.43 in Calm     52% 0.00 in 0.00 W/m2
00:33 46.1 °F 29.5 °F 30.43 in Calm     52% 0.00 in 0.00 W/m2
00:38 45.9 °F 29.3 °F 30.44 in Calm     52% 0.00 in 0.00 W/m2
00:43 45.8 °F 29.2 °F 30.44 in Calm     52% 0.00 in 0.00 W/m2
00:48 45.8 °F 29.2 °F 30.44 in Calm     52% 0.00 in 0.00 W/m2
00:53 45.6 °F 29.0 °F 30.44 in Calm     52% 0.00 in 0.00 W/m2
00:58 45.6 °F 29.0 °F 30.44 in Calm     52% 0.00 in 0.00 W/m2
01:03 45.5 °F 29.4 °F 30.44 in Calm     53% 0.00 in 0.00 W/m2
01:04 45.5 °F 29.4 °F 30.44 in Calm     53% 0.00 in 0.00 W/m2
01:09 45.4 °F 29.3 °F 30.43 in Calm     53% 0.00 in 0.00 W/m2
01:14 45.2 °F 29.1 °F 30.43 in Calm     53% 0.00 in 0.00 W/m2
01:19 45.2 °F 29.1 °F 30.43 in Calm     53% 0.00 in 0.00 W/m2
01:24 45.0 °F 28.9 °F 30.43 in Calm     53% 0.00 in 0.00 W/m2
01:29 44.9 °F 29.3 °F 30.43 in Calm     54% 0.00 in 0.00 W/m2
01:34 44.8 °F 29.2 °F 30.43 in Calm     54% 0.00 in 0.00 W/m2
01:39 44.6 °F 29.0 °F 30.43 in Calm     54% 0.00 in 0.00 W/m2
01:44 44.5 °F 28.9 °F 30.43 in Calm     54% 0.00 in 0.00 W/m2
01:49 44.3 °F 29.2 °F 30.43 in Calm     55% 0.00 in 0.00 W/m2
01:54 44.0 °F 28.9 °F 30.43 in Calm     55% 0.00 in 0.00 W/m2
01:59 43.8 °F 28.7 °F 30.42 in Calm     55% 0.00 in 0.00 W/m2
02:04 43.7 °F 29.0 °F 30.42 in Calm     56% 0.00 in 0.00 W/m2
02:08 43.6 °F 29.0 °F 30.42 in Calm     56% 0.00 in 0.00 W/m2
02:13 43.4 °F 28.8 °F 30.43 in Calm     56% 0.00 in 0.00 W/m2
02:18 43.4 °F 28.8 °F 30.42 in Calm     56% 0.00 in 0.00 W/m2
02:23 43.3 °F 29.1 °F 30.43 in Calm     57% 0.00 in 0.00 W/m2
02:28 43.1 °F 28.9 °F 30.43 in Calm     57% 0.00 in 0.00 W/m2
02:33 43.0 °F 28.8 °F 30.43 in Calm     57% 0.00 in 0.00 W/m2
02:38 42.8 °F 29.1 °F 30.42 in Calm     58% 0.00 in 0.00 W/m2
02:43 42.6 °F 28.9 °F 30.42 in Calm     58% 0.00 in 0.00 W/m2
02:48 42.4 °F 28.7 °F 30.42 in Calm     58% 0.00 in 0.00 W/m2
02:53 42.3 °F 29.0 °F 30.42 in Calm     59% 0.00 in 0.00 W/m2
02:58 42.1 °F 28.8 °F 30.42 in ESE 1.0 mph 1.0 mph 59% 0.00 in 0.00 W/m2
03:03 42.0 °F 28.7 °F 30.42 in Calm     59% 0.00 in 0.00 W/m2
03:08 41.8 °F 28.5 °F 30.42 in Calm     59% 0.00 in 0.00 W/m2
03:13 41.7 °F 28.9 °F 30.42 in Calm     60% 0.00 in 0.00 W/m2
03:18 41.5 °F 28.7 °F 30.42 in Calm     60% 0.00 in 0.00 W/m2
03:23 41.4 °F 28.6 °F 30.42 in Calm     60% 0.00 in 0.00 W/m2
03:28 41.3 °F 28.9 °F 30.42 in ESE 2.0 mph 5.0 mph 61% 0.00 in 0.00 W/m2
03:33 41.3 °F 28.9 °F 30.42 in ESE 6.0 mph 6.0 mph 61% 0.00 in 0.00 W/m2
03:38 41.2 °F 28.8 °F 30.42 in Calm     61% 0.00 in 0.00 W/m2
03:43 41.1 °F 28.7 °F 30.42 in East 3.0 mph 4.0 mph 61% 0.00 in 0.00 W/m2
03:48 40.9 °F 28.9 °F 30.42 in East 4.0 mph 5.0 mph 62% 0.00 in 0.00 W/m2
03:53 40.7 °F 28.7 °F 30.41 in SE 5.0 mph 6.0 mph 62% 0.00 in 0.00 W/m2
03:58 40.6 °F 28.6 °F 30.42 in ESE 8.0 mph 8.0 mph 62% 0.00 in 0.00 W/m2
04:03 40.5 °F 28.9 °F 30.42 in ESE 6.0 mph 6.0 mph 63% 0.00 in 0.00 W/m2
04:08 40.3 °F 28.7 °F 30.42 in SE 2.0 mph 2.0 mph 63% 0.00 in 0.00 W/m2
04:13 40.1 °F 28.5 °F 30.42 in East 5.0 mph 5.0 mph 63% 0.00 in 0.00 W/m2
04:18 40.0 °F 28.8 °F 30.42 in SE 4.0 mph 4.0 mph 64% 0.00 in 0.00 W/m2
04:23 39.8 °F 28.6 °F 30.42 in Calm     64% 0.00 in 0.00 W/m2
04:28 39.7 °F 28.5 °F 30.42 in SE 4.0 mph 4.0 mph 64% 0.00 in 0.00 W/m2
04:33 39.6 °F 28.8 °F 30.42 in Calm     65% 0.00 in 0.00 W/m2
04:38 39.4 °F 28.6 °F 30.42 in Calm   4.0 mph 65% 0.00 in 0.00 W/m2
04:43 39.4 °F 29.0 °F 30.42 in ESE 2.0 mph 4.0 mph 66% 0.00 in 0.00 W/m2
04:48 39.4 °F 29.0 °F 30.42 in Calm     66% 0.00 in 0.00 W/m2
04:53 39.3 °F 28.9 °F 30.42 in Calm     66% 0.00 in 0.00 W/m2
04:58 39.3 °F 28.9 °F 30.42 in Calm     66% 0.00 in 0.00 W/m2
05:03 39.3 °F 28.9 °F 30.42 in Calm     66% 0.00 in 0.00 W/m2
05:08 39.2 °F 28.8 °F 30.42 in SE 4.0 mph 5.0 mph 66% 0.00 in 0.00 W/m2
05:13 39.1 °F 28.7 °F 30.42 in East 3.0 mph 3.0 mph 66% 0.00 in 0.00 W/m2
05:18 39.1 °F 29.1 °F 30.42 in Calm     67% 0.00 in 0.00 W/m2
05:23 38.9 °F 28.9 °F 30.42 in SE 4.0 mph 5.0 mph 67% 0.00 in 0.00 W/m2
05:28 38.8 °F 28.8 °F 30.42 in ESE 5.0 mph 7.0 mph 67% 0.00 in 0.00 W/m2
05:33 38.7 °F 28.7 °F 30.41 in SE 6.0 mph 7.0 mph 67% 0.00 in 0.00 W/m2
05:38 38.6 °F 29.0 °F 30.41 in ESE 7.0 mph 7.0 mph 68% 0.00 in 0.00 W/m2
05:43 38.6 °F 29.0 °F 30.41 in SE 4.0 mph 5.0 mph 68% 0.00 in 0.00 W/m2
05:48 38.5 °F 28.9 °F 30.42 in SSE 5.0 mph 5.0 mph 68% 0.00 in 0.00 W/m2
05:53 38.4 °F 28.8 °F 30.42 in Calm   6.0 mph 68% 0.00 in 0.00 W/m2
05:56 38.3 °F 28.7 °F 30.42 in Calm     68% 0.00 in 0.00 W/m2
06:01 38.1 °F 28.8 °F 30.42 in Calm     69% 0.00 in 0.00 W/m2
06:06 38.0 °F 28.8 °F 30.42 in Calm     69% 0.00 in 0.00 W/m2
06:11 38.0 °F 28.8 °F 30.43 in Calm     69% 0.00 in 0.00 W/m2
06:16 37.9 °F 28.6 °F 30.42 in Calm     69% 0.00 in 0.00 W/m2
06:21 37.9 °F 29.0 °F 30.43 in Calm     70% 0.00 in 0.00 W/m2
06:26 37.9 °F 29.0 °F 30.43 in Calm     70% 0.00 in 0.00 W/m2
06:31 37.9 °F 29.0 °F 30.43 in SE 5.0 mph 6.0 mph 70% 0.00 in 0.00 W/m2
06:36 37.9 °F 29.0 °F 30.43 in Calm     70% 0.00 in 0.00 W/m2
06:41 37.9 °F 29.0 °F 30.43 in East 2.0 mph 6.0 mph 70% 0.00 in 5.00 W/m2
06:46 37.9 °F 29.0 °F 30.43 in Calm   5.0 mph 70% 0.00 in 7.00 W/m2
06:51 37.9 °F 29.0 °F 30.43 in Calm   5.0 mph 70% 0.00 in 14.00 W/m2
06:56 37.9 °F 29.0 °F 30.43 in Calm     70% 0.00 in 19.00 W/m2
07:01 37.9 °F 29.0 °F 30.43 in Calm   5.0 mph 70% 0.00 in 21.00 W/m2
07:06 38.0 °F 29.1 °F 30.44 in ESE 5.0 mph 5.0 mph 70% 0.00 in 33.00 W/m2
07:11 38.1 °F 29.2 °F 30.44 in Calm   4.0 mph 70% 0.00 in 51.00 W/m2
07:16 38.4 °F 29.8 °F 30.44 in Calm     71% 0.00 in 65.00 W/m2
07:21 38.6 °F 29.7 °F 30.44 in Calm     70% 0.00 in 63.00 W/m2
07:26 38.8 °F 29.9 °F 30.44 in ENE 2.0 mph 3.0 mph 70% 0.00 in 56.00 W/m2
07:31 38.9 °F 30.0 °F 30.44 in SE 1.0 mph 1.0 mph 70% 0.00 in 53.00 W/m2
07:36 39.0 °F 30.1 °F 30.44 in Calm   4.0 mph 70% 0.00 in 56.00 W/m2
07:41 39.0 °F 30.1 °F 30.44 in ESE 4.0 mph 4.0 mph 70% 0.00 in 69.00 W/m2
07:46 39.1 °F 30.2 °F 30.44 in Calm     70% 0.00 in 81.00 W/m2
07:51 39.2 °F 30.2 °F 30.44 in East 4.0 mph 6.0 mph 70% 0.00 in 93.00 W/m2
07:56 39.3 °F 30.4 °F 30.45 in ESE 5.0 mph 8.0 mph 70% 0.00 in 114.00 W/m2
08:01 39.5 °F 30.5 °F 30.45 in Calm     70% 0.00 in 118.00 W/m2
08:06 39.7 °F 30.7 °F 30.45 in SE 6.0 mph 6.0 mph 70% 0.00 in 102.00 W/m2
08:11 40.0 °F 30.7 °F 30.45 in SE 6.0 mph 7.0 mph 69% 0.00 in 111.00 W/m2
08:16 40.3 °F 31.0 °F 30.45 in Calm   8.0 mph 69% 0.00 in 135.00 W/m2
08:21 40.8 °F 31.1 °F 30.45 in ESE 7.0 mph 7.0 mph 68% 0.00 in 223.00 W/m2
08:26 41.4 °F 31.6 °F 30.44 in Calm     68% 0.00 in 260.00 W/m2
08:31 42.1 °F 31.6 °F 30.44 in ENE 8.0 mph 9.0 mph 66% 0.00 in 230.00 W/m2
08:36 42.6 °F 31.7 °F 30.44 in ESE 8.0 mph 8.0 mph 65% 0.00 in 181.00 W/m2
08:41 43.1 °F 31.8 °F 30.43 in ESE 5.0 mph 8.0 mph 64% 0.00 in 209.00 W/m2
08:46 43.5 °F 31.8 °F 30.44 in SE 4.0 mph 12.0 mph 63% 0.00 in 244.00 W/m2
08:51 44.0 °F 32.2 °F 30.44 in SE 5.0 mph 7.0 mph 63% 0.00 in 304.00 W/m2
08:56 44.7 °F 32.5 °F 30.44 in East 4.0 mph 4.0 mph 62% 0.00 in 327.00 W/m2
09:01 45.8 °F 33.1 °F 30.44 in Calm   2.0 mph 61% 0.00 in 376.00 W/m2
09:06 46.4 °F 33.3 °F 30.43 in East 6.0 mph 6.0 mph 60% 0.00 in 253.00 W/m2
09:11 46.8 °F 33.2 °F 30.43 in SE 5.0 mph 7.0 mph 59% 0.00 in 308.00 W/m2
09:16 47.1 °F 33.1 °F 30.43 in ESE 4.0 mph 13.0 mph 58% 0.00 in 341.00 W/m2
09:21 47.6 °F 33.6 °F 30.43 in ESE 5.0 mph 10.0 mph 58% 0.00 in 378.00 W/m2
09:26 47.8 °F 33.3 °F 30.43 in Calm     57% 0.00 in 304.00 W/m2
09:31 48.1 °F 33.6 °F 30.43 in Calm     57% 0.00 in 366.00 W/m2
09:36 48.5 °F 33.5 °F 30.43 in Calm   4.0 mph 56% 0.00 in 288.00 W/m2
09:41 48.8 °F 33.8 °F 30.42 in SE 5.0 mph 6.0 mph 56% 0.00 in 246.00 W/m2
09:46 48.9 °F 33.9 °F 30.42 in ESE 7.0 mph 7.0 mph 56% 0.00 in 218.00 W/m2
09:51 49.0 °F 33.5 °F 30.42 in Calm   5.0 mph 55% 0.00 in 169.00 W/m2
09:56 49.2 °F 33.7 °F 30.42 in South 3.0 mph 9.0 mph 55% 0.00 in 153.00 W/m2
10:01 49.2 °F 33.7 °F 30.42 in Calm   6.0 mph 55% 0.00 in 199.00 W/m2
10:06 49.4 °F 33.5 °F 30.42 in SSE 9.0 mph 9.0 mph 54% 0.00 in 251.00 W/m2
10:11 49.6 °F 33.7 °F 30.42 in ESE 13.0 mph 13.0 mph 54% 0.00 in 302.00 W/m2
10:16 50.0 °F 34.0 °F 30.42 in Calm   7.0 mph 54% 0.00 in 352.00 W/m2
10:21 50.3 °F 33.8 °F 30.42 in SE 11.0 mph 11.0 mph 53% 0.00 in 364.00 W/m2
10:26 50.6 °F 33.6 °F 30.42 in South 7.0 mph 12.0 mph 52% 0.00 in 420.00 W/m2
10:31 50.9 °F 34.4 °F 30.42 in ESE 7.0 mph 8.0 mph 53% 0.00 in 471.00 W/m2
10:36 51.4 °F 34.4 °F 30.42 in Calm   5.0 mph 52% 0.00 in 531.00 W/m2
10:41 51.9 °F 33.9 °F 30.42 in Calm     50% 0.00 in 468.00 W/m2
10:46 52.1 °F 34.0 °F 30.42 in ESE 11.0 mph 11.0 mph 50% 0.00 in 478.00 W/m2
10:51 52.3 °F 33.7 °F 30.41 in Calm     49% 0.00 in 524.00 W/m2
10:56 52.5 °F 33.4 °F 30.42 in ESE 1.0 mph 10.0 mph 48% 0.00 in 601.00 W/m2
11:01 53.3 °F 34.1 °F 30.41 in Calm   5.0 mph 48% 0.00 in 717.00 W/m2
11:06 54.2 °F 33.9 °F 30.41 in ESE 13.0 mph 15.0 mph 46% 0.00 in 679.00 W/m2
11:11 54.2 °F 33.3 °F 30.41 in ESE 9.0 mph 13.0 mph 45% 0.00 in 656.00 W/m2
11:16 54.4 °F 33.5 °F 30.41 in SE 2.0 mph 15.0 mph 45% 0.00 in 700.00 W/m2
11:21 54.8 °F 33.3 °F 30.41 in SSE 6.0 mph 10.0 mph 44% 0.00 in 548.00 W/m2
11:26 54.5 °F 33.0 °F 30.41 in Calm   12.0 mph 44% 0.00 in 350.00 W/m2
11:31 55.1 °F 34.7 °F 30.41 in Calm   5.0 mph 46% 0.00 in 738.00 W/m2
11:36 55.5 °F 34.0 °F 30.41 in Calm   9.0 mph 44% 0.00 in 603.00 W/m2
11:41 55.5 °F 34.0 °F 30.41 in South 1.0 mph 1.0 mph 44% 0.00 in 473.00 W/m2
11:46 55.0 °F 32.9 °F 30.41 in Calm   8.0 mph 43% 0.00 in 578.00 W/m2
11:51 55.2 °F 33.7 °F 30.40 in Calm   13.0 mph 44% 0.00 in 575.00 W/m2
11:56 55.4 °F 33.9 °F 30.41 in SSW 3.0 mph 12.0 mph 44% 0.00 in 619.00 W/m2
12:01 55.7 °F 34.1 °F 30.40 in SE 8.0 mph 8.0 mph 44% 0.00 in 682.00 W/m2
12:06 56.0 °F 33.8 °F 30.40 in Calm   10.0 mph 43% 0.00 in 540.00 W/m2
12:11 56.1 °F 33.3 °F 30.39 in Calm   7.0 mph 42% 0.00 in 478.00 W/m2
12:16 56.2 °F 34.0 °F 30.39 in Calm   17.0 mph 43% 0.00 in 547.00 W/m2
12:21 56.6 °F 34.4 °F 30.39 in SE 6.0 mph 7.0 mph 43% 0.00 in 842.00 W/m2
12:26 57.2 °F 33.7 °F 30.39 in Calm     41% 0.00 in 538.00 W/m2
12:31 57.7 °F 33.6 °F 30.38 in SE 1.0 mph 9.0 mph 40% 0.00 in 552.00 W/m2
12:36 58.0 °F 31.9 °F 30.38 in Calm   11.0 mph 37% 0.00 in 577.00 W/m2
12:41 57.9 °F 33.1 °F 30.38 in SSE 1.0 mph 12.0 mph 39% 0.00 in 448.00 W/m2
12:46 57.6 °F 32.2 °F 30.38 in ESE 8.0 mph 8.0 mph 38% 0.00 in 468.00 W/m2
12:51 57.6 °F 32.2 °F 30.38 in Calm     38% 0.00 in 533.00 W/m2
12:56 58.0 °F 33.2 °F 30.37 in Calm     39% 0.00 in 538.00 W/m2
13:01 58.2 °F 32.7 °F 30.37 in SSE 1.0 mph 13.0 mph 38% 0.00 in 710.00 W/m2
13:06 58.1 °F 32.7 °F 30.37 in Calm   2.0 mph 38% 0.00 in 719.00 W/m2
13:11 58.2 °F 32.1 °F 30.36 in Calm   1.0 mph 37% 0.00 in 826.00 W/m2
13:16 58.9 °F 32.7 °F 30.36 in Calm   1.0 mph 37% 0.00 in 821.00 W/m2
13:21 59.1 °F 32.2 °F 30.36 in Calm   6.0 mph 36% 0.00 in 837.00 W/m2
13:26 59.3 °F 32.4 °F 30.35 in SE 1.0 mph 1.0 mph 36% 0.00 in 867.00 W/m2
13:31 59.1 °F 32.9 °F 30.35 in Calm   2.0 mph 37% 0.00 in 476.00 W/m2
13:36 59.1 °F 32.9 °F 30.34 in Calm   1.0 mph 37% 0.00 in 519.00 W/m2
13:41 59.0 °F 32.1 °F 30.34 in East 4.0 mph 20.0 mph 36% 0.00 in 557.00 W/m2
13:46 59.3 °F 31.7 °F 30.34 in Calm     35% 0.00 in 668.00 W/m2
13:51 59.6 °F 31.2 °F 30.33 in ESE 9.0 mph 9.0 mph 34% 0.00 in 744.00 W/m2
13:56 59.8 °F 31.4 °F 30.33 in Calm   12.0 mph 34% 0.00 in 624.00 W/m2
14:01 60.0 °F 32.3 °F 30.33 in ENE 6.0 mph 11.0 mph 35% 0.00 in 485.00 W/m2
14:06 59.7 °F 31.3 °F 30.33 in Calm     34% 0.00 in 431.00 W/m2
14:11 59.7 °F 30.6 °F 30.33 in Calm   2.0 mph 33% 0.00 in 550.00 W/m2
14:16 60.8 °F 32.3 °F 30.33 in South 4.0 mph 4.0 mph 34% 0.00 in 946.00 W/m2
14:21 61.5 °F 30.6 °F 30.33 in SSE 9.0 mph 12.0 mph 31% 0.00 in 872.00 W/m2
14:26 61.5 °F 31.4 °F 30.32 in Calm     32% 0.00 in 851.00 W/m2
14:31 62.1 °F 31.1 °F 30.32 in SSE 7.0 mph 7.0 mph 31% 0.00 in 853.00 W/m2
14:36 61.9 °F 30.1 °F 30.31 in South 1.0 mph 10.0 mph 30% 0.00 in 805.00 W/m2
14:41 61.5 °F 29.8 °F 30.31 in Calm     30% 0.00 in 617.00 W/m2
14:46 61.4 °F 30.5 °F 30.31 in SE 10.0 mph 10.0 mph 31% 0.00 in 487.00 W/m2
14:51 61.2 °F 28.7 °F 30.31 in SSE 8.0 mph 10.0 mph 29% 0.00 in 427.00 W/m2
14:56 60.8 °F 29.2 °F 30.31 in SE 11.0 mph 22.0 mph 30% 0.00 in 545.00 W/m2
15:01 60.9 °F 30.1 °F 30.30 in SE 7.0 mph 7.0 mph 31% 0.00 in 439.00 W/m2
15:06 61.2 °F 31.1 °F 30.30 in Calm   2.0 mph 32% 0.00 in 452.00 W/m2
15:11 61.3 °F 29.6 °F 30.30 in Calm   8.0 mph 30% 0.00 in 461.00 W/m2
15:16 61.2 °F 30.4 °F 30.29 in SE 5.0 mph 5.0 mph 31% 0.00 in 374.00 W/m2
15:21 61.2 °F 29.5 °F 30.28 in ESE 6.0 mph 7.0 mph 30% 0.00 in 338.00 W/m2
15:26 60.9 °F 29.3 °F 30.29 in Calm   13.0 mph 30% 0.00 in 325.00 W/m2
15:31 60.7 °F 29.1 °F 30.29 in ESE 4.0 mph 17.0 mph 30% 0.00 in 325.00 W/m2
15:36 60.8 °F 29.2 °F 30.28 in Calm   1.0 mph 30% 0.00 in 322.00 W/m2
15:41 60.9 °F 28.5 °F 30.28 in Calm   9.0 mph 29% 0.00 in 309.00 W/m2
15:46 61.1 °F 29.5 °F 30.27 in Calm     30% 0.00 in 339.00 W/m2
15:51 61.3 °F 28.8 °F 30.28 in East 2.0 mph 6.0 mph 29% 0.00 in 392.00 W/m2
15:56 61.1 °F 28.6 °F 30.28 in Calm     29% 0.00 in 341.00 W/m2
16:01 61.1 °F 27.8 °F 30.28 in Calm   3.0 mph 28% 0.00 in 292.00 W/m2
16:06 61.0 °F 27.7 °F 30.28 in ESE 2.0 mph 11.0 mph 28% 0.00 in 290.00 W/m2
16:11 61.0 °F 27.7 °F 30.28 in ENE 6.0 mph 8.0 mph 28% 0.00 in 267.00 W/m2
16:12 61.0 °F 27.7 °F 30.28 in SSE 1.0 mph 13.0 mph 28% 0.00 in 262.00 W/m2
16:17 60.9 °F 27.6 °F 30.27 in Calm     28% 0.00 in 251.00 W/m2
16:22 61.1 °F 29.5 °F 30.27 in Calm     30% 0.00 in 236.00 W/m2
16:27 61.3 °F 27.9 °F 30.28 in ESE 8.0 mph 8.0 mph 28% 0.00 in 178.00 W/m2
16:32 61.0 °F 29.4 °F 30.28 in Calm     30% 0.00 in 132.00 W/m2
16:37 60.9 °F 27.6 °F 30.28 in Calm   2.0 mph 28% 0.00 in 113.00 W/m2
16:42 60.7 °F 28.3 °F 30.28 in SE 9.0 mph 11.0 mph 29% 0.00 in 100.00 W/m2
16:43 60.6 °F 28.2 °F 30.27 in Calm   8.0 mph 29% 0.00 in 100.00 W/m2
16:48 60.5 °F 28.1 °F 30.28 in Calm   5.0 mph 29% 0.00 in 90.00 W/m2
16:53 60.5 °F 28.9 °F 30.28 in Calm   2.0 mph 30% 0.00 in 74.00 W/m2
16:58 60.6 °F 29.0 °F 30.29 in Calm     30% 0.00 in 74.00 W/m2
17:03 60.6 °F 29.0 °F 30.28 in Calm     30% 0.00 in 70.00 W/m2
17:08 60.5 °F 28.1 °F 30.29 in Calm   1.0 mph 29% 0.00 in 79.00 W/m2
17:13 60.5 °F 27.3 °F 30.29 in Calm   10.0 mph 28% 0.00 in 93.00 W/m2
17:18 60.4 °F 28.0 °F 30.29 in Calm     29% 0.00 in 113.00 W/m2
SouthEast Lincoln Weather
Compliments of Weather Underground - 2 mb